EJA906 KIAD-KCMH

Flight info

Callsign EJA906
Flight time 0h 57m
Altitude 28000
Route BUNZZ3 RAMAY Q72 HACKS SCRLT2
Aircraft C750/M-SBDFGHRWXY/S

Departure

Time 2026-05-08 23:47
Airport Washington Dulles International Airport (KIAD)

Arrival

Time 2026-05-09 00:44
Airport John Glenn Columbus International Airport (KCMH)
Time Latitude Longitude Altitude Speed Heading
2026-05-08 22:40 38.95383 -77.44125 289 ft 0 kts
2026-05-08 23:38 38.95412 -77.44119 289 ft 6 kts 19°
2026-05-08 23:38 38.95455 -77.44096 290 ft 4 kts 26°
2026-05-08 23:38 38.95482 -77.44070 290 ft 4 kts 58°
2026-05-08 23:39 38.95490 -77.44024 291 ft 5 kts 91°
2026-05-08 23:39 38.95488 -77.43973 292 ft 7 kts 91°
2026-05-08 23:39 38.95488 -77.43906 292 ft 8 kts 90°
2026-05-08 23:39 38.95487 -77.43829 292 ft 8 kts 91°
2026-05-08 23:40 38.95486 -77.43758 293 ft 5 kts 91°
2026-05-08 23:40 38.95486 -77.43729 294 ft 0 kts 91°
2026-05-08 23:45 38.95486 -77.43684 294 ft 7 kts 91°
2026-05-08 23:46 38.95484 -77.43619 294 ft 6 kts 104°
2026-05-08 23:46 38.95441 -77.43600 294 ft 8 kts 180°
2026-05-08 23:46 38.95191 -77.43604 294 ft 89 kts 181°
2026-05-08 23:46 38.94223 -77.43620 526 ft 170 kts 182°
2026-05-08 23:47 38.92983 -77.43681 1244 ft 186 kts 194°
2026-05-08 23:47 38.91844 -77.44466 1776 ft 194 kts 228°
2026-05-08 23:47 38.90862 -77.45651 2502 ft 197 kts 214°
2026-05-08 23:47 38.89557 -77.46066 3265 ft 208 kts 177°
2026-05-08 23:48 38.88217 -77.45260 4114 ft 225 kts 139°
2026-05-08 23:48 38.87437 -77.43504 4937 ft 240 kts 108°
2026-05-08 23:48 38.87103 -77.41359 5727 ft 254 kts 100°
2026-05-08 23:48 38.86814 -77.39087 6525 ft 267 kts 100°
2026-05-08 23:49 38.86503 -77.36706 7315 ft 278 kts 100°
2026-05-08 23:49 38.86189 -77.34245 8138 ft 286 kts 100°
2026-05-08 23:49 38.85843 -77.31711 8976 ft 293 kts 100°
2026-05-08 23:49 38.85475 -77.29139 9801 ft 298 kts 100°
2026-05-08 23:50 38.85105 -77.26553 10420 ft 300 kts 100°
2026-05-08 23:50 38.84707 -77.23896 10893 ft 307 kts 100°
2026-05-08 23:50 38.84308 -77.21153 11011 ft 323 kts 100°
2026-05-08 23:50 38.83883 -77.18298 11427 ft 335 kts 100°
2026-05-08 23:51 38.83312 -77.15316 12169 ft 358 kts 111°
2026-05-08 23:51 38.81958 -77.12567 12834 ft 377 kts 136°
2026-05-08 23:51 38.79794 -77.10708 13721 ft 379 kts 163°
2026-05-08 23:51 38.77264 -77.10151 14812 ft 370 kts 187°
2026-05-08 23:52 38.74804 -77.10905 15720 ft 363 kts 212°
2026-05-08 23:52 38.72852 -77.12904 16430 ft 361 kts 237°
2026-05-08 23:52 38.71748 -77.15752 16897 ft 369 kts 258°
2026-05-08 23:52 38.71217 -77.19040 16989 ft 381 kts 261°
2026-05-08 23:53 38.70981 -77.22382 16951 ft 377 kts 277°
2026-05-08 23:53 38.71826 -77.25539 16989 ft 375 kts 295°
2026-05-08 23:53 38.72690 -77.28662 17001 ft 375 kts 283°
2026-05-08 23:53 38.73506 -77.31815 16982 ft 376 kts 291°
2026-05-08 23:54 38.74300 -77.35009 16973 ft 376 kts 286°
2026-05-08 23:54 38.75151 -77.38191 16999 ft 379 kts 288°
2026-05-08 23:54 38.75936 -77.41402 17001 ft 381 kts 288°
2026-05-08 23:55 38.77591 -77.47845 17010 ft 385 kts 288°
2026-05-08 23:55 38.78416 -77.51103 17012 ft 386 kts 287°
2026-05-08 23:55 38.79252 -77.54386 17004 ft 386 kts 288°
2026-05-08 23:55 38.80070 -77.57636 17001 ft 386 kts 288°
2026-05-08 23:56 38.80907 -77.60912 17003 ft 386 kts 288°
2026-05-08 23:56 38.81727 -77.64168 17003 ft 386 kts 288°
2026-05-08 23:56 38.82543 -77.67417 17020 ft 386 kts 287°
2026-05-08 23:56 38.83383 -77.70714 17018 ft 386 kts 288°
2026-05-08 23:57 38.84197 -77.73978 17047 ft 386 kts 287°
2026-05-08 23:57 38.85016 -77.77219 17421 ft 377 kts 287°
2026-05-08 23:57 38.85793 -77.80310 18164 ft 361 kts 287°
2026-05-08 23:57 38.86564 -77.83396 19057 ft 365 kts 287°
2026-05-08 23:58 38.87334 -77.86471 20007 ft 368 kts 287°
2026-05-08 23:58 38.88115 -77.89578 21018 ft 369 kts 287°
2026-05-08 23:58 38.88882 -77.92671 22010 ft 368 kts 287°
2026-05-08 23:58 38.89669 -77.95795 23004 ft 367 kts 286°
2026-05-08 23:59 38.90435 -77.98893 23944 ft 366 kts 286°
2026-05-08 23:59 38.91206 -78.01983 24858 ft 365 kts 286°
2026-05-08 23:59 38.91966 -78.05047 25733 ft 364 kts 285°
2026-05-08 23:59 38.92723 -78.08099 26557 ft 364 kts 285°
2026-05-09 00:00 38.93500 -78.11219 27246 ft 366 kts 285°
2026-05-09 00:00 38.94268 -78.14326 27795 ft 371 kts 285°
2026-05-09 00:00 38.95059 -78.17518 27929 ft 385 kts 285°
2026-05-09 00:00 38.95875 -78.20860 27944 ft 400 kts 284°
2026-05-09 00:01 38.96245 -78.24462 27960 ft 408 kts 272°
2026-05-09 00:01 38.96487 -78.28054 27951 ft 412 kts 276°
2026-05-09 00:01 38.96721 -78.31719 27950 ft 415 kts 274°
2026-05-09 00:01 38.96976 -78.35453 27958 ft 417 kts 275°
2026-05-09 00:02 38.97201 -78.39136 27958 ft 419 kts 274°
2026-05-09 00:02 38.97448 -78.42871 27954 ft 421 kts 274°
2026-05-09 00:02 38.97676 -78.46596 27956 ft 420 kts 275°
2026-05-09 00:02 38.97918 -78.50354 27952 ft 418 kts 275°
2026-05-09 00:03 38.98149 -78.54020 27944 ft 415 kts 275°
2026-05-09 00:03 38.98381 -78.57705 27948 ft 413 kts 275°
2026-05-09 00:03 38.98615 -78.61384 27949 ft 412 kts 275°
2026-05-09 00:03 38.98833 -78.65045 27960 ft 412 kts 274°
2026-05-09 00:04 38.99062 -78.68704 27980 ft 412 kts 274°
2026-05-09 00:04 38.99288 -78.72340 27985 ft 412 kts 275°
2026-05-09 00:04 38.99503 -78.75993 27978 ft 413 kts 274°
2026-05-09 00:04 38.99735 -78.79650 27979 ft 413 kts 274°
2026-05-09 00:05 38.99952 -78.83326 27970 ft 414 kts 274°
2026-05-09 00:05 39.00172 -78.87039 27972 ft 414 kts 274°
2026-05-09 00:05 39.00396 -78.90720 27972 ft 415 kts 274°
2026-05-09 00:05 39.00614 -78.94372 27971 ft 415 kts 274°
2026-05-09 00:06 39.00834 -78.98084 27966 ft 415 kts 274°
2026-05-09 00:06 39.01044 -79.01755 27968 ft 415 kts 274°
2026-05-09 00:06 39.01262 -79.05431 27963 ft 416 kts 274°
2026-05-09 00:06 39.01478 -79.09154 27972 ft 416 kts 275°
2026-05-09 00:07 39.01691 -79.12859 27975 ft 416 kts 275°
2026-05-09 00:07 39.01905 -79.16524 27980 ft 416 kts 275°
2026-05-09 00:07 39.02137 -79.20248 27986 ft 416 kts 275°
2026-05-09 00:07 39.02384 -79.23943 27981 ft 416 kts 275°
2026-05-09 00:08 39.02630 -79.27639 27977 ft 417 kts 275°
2026-05-09 00:08 39.02872 -79.31340 27975 ft 417 kts 275°
2026-05-09 00:08 39.03104 -79.35017 27972 ft 414 kts 275°
2026-05-09 00:08 39.03350 -79.38693 27965 ft 413 kts 275°
2026-05-09 00:09 39.03579 -79.42339 27967 ft 413 kts 275°
2026-05-09 00:09 39.03816 -79.46056 27966 ft 414 kts 275°
2026-05-09 00:09 39.04050 -79.49743 27965 ft 415 kts 275°
2026-05-09 00:09 39.04287 -79.53406 27966 ft 416 kts 275°
2026-05-09 00:10 39.04518 -79.57107 27967 ft 416 kts 275°
2026-05-09 00:10 39.04750 -79.60809 27967 ft 418 kts 275°
2026-05-09 00:10 39.04980 -79.64516 27963 ft 419 kts 275°
2026-05-09 00:10 39.05210 -79.68249 27981 ft 420 kts 275°
2026-05-09 00:11 39.05443 -79.72010 27985 ft 421 kts 275°
2026-05-09 00:11 39.05677 -79.75723 27986 ft 422 kts 275°
2026-05-09 00:11 39.05899 -79.79502 27990 ft 422 kts 275°
2026-05-09 00:11 39.06134 -79.83263 27982 ft 420 kts 275°
2026-05-09 00:12 39.06357 -79.86988 27972 ft 420 kts 274°
2026-05-09 00:12 39.06581 -79.90699 27966 ft 420 kts 274°
2026-05-09 00:12 39.06806 -79.94450 27956 ft 422 kts 274°
2026-05-09 00:12 39.07030 -79.98242 27954 ft 423 kts 274°
2026-05-09 00:13 39.07255 -80.02004 27947 ft 425 kts 274°
2026-05-09 00:13 39.07471 -80.05743 27943 ft 426 kts 274°
2026-05-09 00:13 39.07696 -80.09557 27943 ft 426 kts 274°
2026-05-09 00:13 39.07912 -80.13324 27932 ft 425 kts 274°
2026-05-09 00:14 39.08134 -80.17078 27935 ft 423 kts 274°
2026-05-09 00:14 39.08349 -80.20840 27935 ft 423 kts 274°
2026-05-09 00:14 39.08561 -80.24618 27935 ft 423 kts 274°
2026-05-09 00:14 39.08780 -80.28404 27936 ft 423 kts 274°
2026-05-09 00:15 39.08989 -80.32134 27932 ft 423 kts 274°
2026-05-09 00:15 39.09195 -80.35937 27933 ft 423 kts 274°
2026-05-09 00:15 39.09392 -80.39696 27927 ft 422 kts 274°
2026-05-09 00:15 39.09602 -80.43456 27935 ft 422 kts 274°
2026-05-09 00:16 39.09797 -80.47175 27935 ft 422 kts 274°
2026-05-09 00:16 39.09997 -80.50967 27936 ft 422 kts 274°
2026-05-09 00:16 39.10199 -80.54723 27932 ft 422 kts 274°
2026-05-09 00:16 39.10393 -80.58466 27924 ft 423 kts 274°
2026-05-09 00:17 39.10589 -80.62235 27920 ft 423 kts 274°
2026-05-09 00:17 39.10786 -80.65995 27920 ft 423 kts 273°
2026-05-09 00:17 39.10975 -80.69748 27928 ft 423 kts 273°
2026-05-09 00:17 39.11171 -80.73493 27931 ft 423 kts 273°
2026-05-09 00:18 39.11365 -80.77271 27929 ft 424 kts 274°
2026-05-09 00:18 39.11552 -80.81052 27927 ft 425 kts 273°
2026-05-09 00:18 39.11747 -80.84861 27924 ft 425 kts 273°
2026-05-09 00:18 39.11933 -80.88662 27920 ft 425 kts 274°
2026-05-09 00:19 39.12115 -80.92395 27914 ft 423 kts 274°
2026-05-09 00:19 39.12309 -80.96181 27913 ft 422 kts 273°
2026-05-09 00:19 39.12489 -80.99933 27911 ft 421 kts 273°
2026-05-09 00:19 39.12669 -81.03667 27914 ft 421 kts 273°
2026-05-09 00:20 39.12853 -81.07443 27915 ft 422 kts 274°
2026-05-09 00:20 39.13451 -81.11101 27888 ft 426 kts 288°
2026-05-09 00:20 39.14591 -81.14616 27912 ft 425 kts 287°
2026-05-09 00:20 39.15633 -81.18197 27916 ft 426 kts 289°
2026-05-09 00:21 39.16719 -81.21735 27919 ft 425 kts 288°
2026-05-09 00:21 39.17781 -81.25266 27917 ft 426 kts 289°
2026-05-09 00:21 39.18862 -81.28832 27916 ft 427 kts 288°
2026-05-09 00:21 39.19920 -81.32359 27920 ft 428 kts 288°
2026-05-09 00:22 39.21007 -81.35937 27846 ft 428 kts 288°
2026-05-09 00:22 39.22061 -81.39485 27607 ft 424 kts 288°
2026-05-09 00:22 39.23132 -81.43008 27341 ft 421 kts 288°
2026-05-09 00:22 39.24175 -81.46517 27076 ft 420 kts 288°
2026-05-09 00:23 39.25225 -81.50008 26693 ft 421 kts 288°
2026-05-09 00:23 39.26276 -81.53546 26125 ft 424 kts 289°
2026-05-09 00:23 39.27342 -81.57085 25554 ft 424 kts 289°
2026-05-09 00:23 39.28390 -81.60628 25005 ft 421 kts 289°
2026-05-09 00:24 39.29430 -81.64094 24419 ft 417 kts 289°
2026-05-09 00:24 39.30462 -81.67571 23748 ft 412 kts 289°
2026-05-09 00:24 39.31478 -81.70985 22984 ft 407 kts 289°
2026-05-09 00:24 39.32491 -81.74393 22222 ft 402 kts 289°
2026-05-09 00:25 39.33476 -81.77724 21472 ft 400 kts 289°
2026-05-09 00:25 39.34454 -81.81034 20733 ft 399 kts 289°
2026-05-09 00:25 39.35455 -81.84390 19982 ft 399 kts 290°
2026-05-09 00:25 39.36426 -81.87698 19243 ft 398 kts 289°
2026-05-09 00:26 39.37408 -81.91021 18505 ft 396 kts 290°
2026-05-09 00:26 39.38387 -81.94351 17760 ft 394 kts 290°
2026-05-09 00:26 39.39343 -81.97581 17023 ft 387 kts 290°
2026-05-09 00:26 39.40293 -82.00822 16267 ft 381 kts 290°
2026-05-09 00:27 39.41217 -82.03960 15525 ft 377 kts 290°
2026-05-09 00:27 39.42139 -82.07104 14779 ft 374 kts 290°
2026-05-09 00:27 39.43049 -82.10215 14036 ft 371 kts 289°
2026-05-09 00:27 39.43957 -82.13317 13292 ft 369 kts 289°
2026-05-09 00:28 39.44854 -82.16385 12677 ft 364 kts 289°
2026-05-09 00:28 39.45742 -82.19418 12183 ft 361 kts 290°
2026-05-09 00:28 39.46623 -82.22455 11685 ft 363 kts 289°
2026-05-09 00:28 39.47528 -82.25547 11240 ft 365 kts 289°
2026-05-09 00:29 39.48406 -82.28574 10832 ft 364 kts 289°
2026-05-09 00:29 39.49287 -82.31599 10372 ft 357 kts 289°
2026-05-09 00:29 39.50270 -82.34558 10018 ft 354 kts 300°
2026-05-09 00:29 39.52005 -82.36750 10005 ft 351 kts 322°
2026-05-09 00:30 39.53956 -82.38522 9995 ft 335 kts 319°
2026-05-09 00:30 39.55781 -82.40254 9987 ft 318 kts 320°
2026-05-09 00:30 39.57526 -82.41888 9983 ft 299 kts 319°
2026-05-09 00:30 39.59166 -82.43438 9983 ft 284 kts 319°
2026-05-09 00:31 39.60712 -82.44903 9943 ft 273 kts 318°
2026-05-09 00:31 39.62240 -82.46355 9662 ft 272 kts 319°
2026-05-09 00:31 39.63761 -82.47797 9377 ft 268 kts 319°
2026-05-09 00:31 39.65261 -82.49226 9119 ft 266 kts 318°
2026-05-09 00:32 39.66745 -82.50629 8869 ft 265 kts 319°
2026-05-09 00:32 39.68240 -82.52049 8610 ft 264 kts 319°
2026-05-09 00:32 39.69719 -82.53456 8333 ft 265 kts 318°
2026-05-09 00:32 39.71209 -82.54869 8052 ft 265 kts 319°
2026-05-09 00:33 39.72733 -82.56233 7747 ft 265 kts 321°
2026-05-09 00:33 39.74255 -82.57558 7412 ft 261 kts 320°
2026-05-09 00:33 39.75753 -82.58874 7076 ft 259 kts 320°
2026-05-09 00:33 39.77214 -82.60159 6744 ft 255 kts 320°
2026-05-09 00:34 39.78700 -82.61374 6399 ft 256 kts 332°
2026-05-09 00:34 39.80502 -82.61594 6081 ft 266 kts
2026-05-09 00:34 39.82259 -82.60944 5808 ft 264 kts 13°
2026-05-09 00:34 39.84020 -82.60265 5471 ft 261 kts 13°
2026-05-09 00:35 39.85749 -82.59591 5143 ft 257 kts 13°
2026-05-09 00:35 39.87441 -82.58923 4817 ft 254 kts 13°
2026-05-09 00:35 39.89124 -82.58270 4490 ft 251 kts 13°
2026-05-09 00:35 39.90797 -82.57619 4171 ft 248 kts 13°
2026-05-09 00:36 39.92431 -82.56985 4003 ft 244 kts 13°
2026-05-09 00:36 39.94041 -82.56356 3981 ft 237 kts 13°
2026-05-09 00:36 39.95586 -82.55739 3976 ft 227 kts 13°
2026-05-09 00:36 39.97059 -82.55141 3974 ft 217 kts 13°
2026-05-09 00:37 39.98479 -82.54557 3976 ft 208 kts 13°
2026-05-09 00:37 39.99842 -82.54169 3964 ft 195 kts 349°
2026-05-09 00:37 40.00971 -82.54822 3986 ft 172 kts 303°
2026-05-09 00:37 40.01334 -82.56207 4006 ft 160 kts 259°
2026-05-09 00:38 40.00941 -82.57559 4007 ft 160 kts 243°
2026-05-09 00:38 40.00417 -82.58872 3818 ft 163 kts 242°
2026-05-09 00:38 39.99897 -82.60156 3585 ft 160 kts 242°
2026-05-09 00:38 39.99404 -82.61412 3416 ft 155 kts 247°
2026-05-09 00:39 39.99121 -82.62778 3238 ft 158 kts 261°
2026-05-09 00:39 39.99043 -82.64228 3087 ft 160 kts 265°
2026-05-09 00:39 39.99048 -82.65685 2959 ft 164 kts 267°
2026-05-09 00:39 39.99073 -82.67125 3035 ft 156 kts 269°
2026-05-09 00:40 39.99103 -82.68565 3031 ft 161 kts 267°
2026-05-09 00:40 39.99122 -82.70042 2988 ft 165 kts 268°
2026-05-09 00:40 39.99213 -82.71521 3012 ft 163 kts 272°
2026-05-09 00:41 39.99382 -82.74397 2885 ft 158 kts 271°
2026-05-09 00:41 39.99450 -82.75832 2702 ft 160 kts 270°
2026-05-09 00:41 39.99535 -82.77294 2488 ft 164 kts 272°
2026-05-09 00:41 39.99628 -82.78771 2253 ft 160 kts 272°
2026-05-09 00:42 39.99714 -82.80161 2023 ft 148 kts 272°
2026-05-09 00:42 39.99784 -82.81435 1820 ft 134 kts 272°
2026-05-09 00:42 39.99850 -82.82606 1625 ft 124 kts 271°
2026-05-09 00:42 39.99919 -82.83691 1461 ft 119 kts 271°
2026-05-09 00:43 39.99984 -82.84759 1298 ft 119 kts 270°
2026-05-09 00:43 40.00042 -82.85840 1138 ft 119 kts 270°
2026-05-09 00:43 40.00106 -82.86932 988 ft 121 kts 271°
2026-05-09 00:43 40.00167 -82.88021 816 ft 118 kts 271°
2026-05-09 00:44 40.00219 -82.88936 811 ft 73 kts 270°
2026-05-09 00:44 40.00241 -82.89357 813 ft 37 kts 275°
2026-05-09 00:44 40.00257 -82.89648 813 ft 22 kts 278°
2026-05-09 00:44 40.00331 -82.89713 813 ft 13 kts
2026-05-09 00:45 40.00420 -82.89744 813 ft 14 kts 351°
2026-05-09 00:45 40.00505 -82.89811 813 ft 15 kts 319°
2026-05-09 00:45 40.00570 -82.89902 813 ft 10 kts 306°
2026-05-09 00:45 40.00614 -82.89935 813 ft 6 kts
2026-05-09 00:46 40.00631 -82.89919 813 ft 1 kts 88°
2026-05-09 00:46 40.00631 -82.89915 813 ft 0 kts 94°